Time,TemperatureF,DewpointF,PressureIn,WindDirection,WindDirectionDegrees,WindSpeedMPH,WindSpeedGustMPH,Humidity,HourlyPrecipIn,Conditions,Clouds,dailyrainin,SoftwareType,DateUTC
2013-07-03 00:02:00,77.0,-99.9,30.11,South,169,0.0,0.0,-999,0.00,,,0.00,,2013-07-03 04:02:00,
2013-07-03 00:22:00,76.0,-99.9,30.11,South,169,0.0,0.0,-999,0.00,,,0.00,,2013-07-03 04:22:00,
2013-07-03 00:43:00,76.0,-99.9,30.11,South,169,0.0,0.0,-999,0.00,,,0.00,,2013-07-03 04:43:00,
2013-07-03 00:52:00,76.0,-99.9,30.11,South,169,0.0,0.0,-999,0.00,,,0.00,,2013-07-03 04:52:00,
2013-07-03 01:12:00,75.0,-99.9,30.10,South,169,0.0,0.0,-999,0.00,,,0.00,,2013-07-03 05:12:00,
2013-07-03 01:41:00,75.0,-99.9,30.09,South,169,0.0,0.0,-999,0.00,,,0.00,,2013-07-03 05:41:00,
2013-07-03 01:48:00,75.0,-99.9,30.09,South,169,0.0,0.0,-999,0.00,,,0.00,,2013-07-03 05:48:00,
2013-07-03 02:01:00,75.0,-99.9,30.08,South,169,0.0,0.0,-999,0.00,,,0.00,,2013-07-03 06:01:00,
2013-07-03 02:08:00,76.0,-99.9,30.09,WSW,249,3.0,5.0,-999,0.00,,,0.00,,2013-07-03 06:08:00,
2013-07-03 02:40:00,76.0,-99.9,30.08,South,180,0.0,0.0,-999,0.00,,,0.00,,2013-07-03 06:40:00,
2013-07-03 02:50:00,76.0,-99.9,30.07,SW,225,0.0,0.0,-999,0.00,,,0.00,,2013-07-03 06:50:00,
2013-07-03 02:58:00,75.0,-99.9,30.06,SW,225,0.0,0.0,-999,0.00,,,0.00,,2013-07-03 06:58:00,
2013-07-03 03:08:00,75.0,-99.9,30.06,SW,225,0.0,0.0,-999,0.00,,,0.00,,2013-07-03 07:08:00,
2013-07-03 03:16:00,75.0,-99.9,30.06,SW,225,0.0,0.0,-999,0.00,,,0.00,,2013-07-03 07:16:00,
2013-07-03 03:28:00,75.0,-99.9,30.06,SW,225,0.0,0.0,-999,0.00,,,0.00,,2013-07-03 07:28:00,
2013-07-03 04:03:00,75.0,-99.9,30.07,SW,225,0.0,0.0,-999,0.00,,,0.00,,2013-07-03 08:03:00,
2013-07-03 04:25:00,75.0,-99.9,30.07,SW,225,0.0,0.0,-999,0.00,,,0.00,,2013-07-03 08:25:00,
2013-07-03 04:48:00,75.0,-99.9,30.07,SW,225,0.0,0.0,-999,0.00,,,0.00,,2013-07-03 08:48:00,
2013-07-03 04:59:00,75.0,-99.9,30.07,SW,225,0.0,0.0,-999,0.00,,,0.00,,2013-07-03 08:59:00,
2013-07-03 05:16:00,75.0,-99.9,30.07,SW,225,0.0,0.0,-999,0.00,,,0.00,,2013-07-03 09:16:00,
2013-07-03 05:27:00,77.0,-99.9,30.07,SW,225,0.0,0.0,-999,0.00,,,0.00,,2013-07-03 09:27:00,
2013-07-03 05:40:00,77.0,-99.9,30.07,SW,225,0.0,0.0,-999,0.00,,,0.00,,2013-07-03 09:40:00,
2013-07-03 05:48:00,77.0,-99.9,30.06,SW,225,0.0,0.0,-999,0.00,,,0.00,,2013-07-03 09:48:00,
2013-07-03 06:07:00,77.0,-99.9,30.07,SW,225,0.0,0.0,-999,0.00,,,0.00,,2013-07-03 10:07:00,
2013-07-03 06:37:00,78.0,-99.9,30.06,SW,225,0.0,0.0,-999,0.00,,,0.00,,2013-07-03 10:37:00,
2013-07-03 06:47:00,78.0,-99.9,30.06,SW,225,0.0,0.0,-999,0.00,,,0.00,,2013-07-03 10:47:00,
2013-07-03 07:07:00,78.0,-99.9,30.06,SW,225,0.0,0.0,-999,0.00,,,0.00,,2013-07-03 11:07:00,
2013-07-03 07:16:00,78.0,-99.9,30.06,SW,225,0.0,0.0,-999,0.00,,,0.00,,2013-07-03 11:16:00,
2013-07-03 07:46:00,79.0,-99.9,30.06,SE,141,0.0,0.0,-999,0.00,,,0.00,,2013-07-03 11:46:00,
2013-07-03 08:00:00,79.0,-99.9,30.07,SE,138,2.0,0.0,-999,0.00,,,0.00,,2013-07-03 12:00:00,
2013-07-03 08:09:00,79.0,-99.9,30.07,SE,138,2.0,0.0,-999,0.00,,,0.00,,2013-07-03 12:09:00,
2013-07-03 08:17:00,80.0,-99.9,30.07,SSE,152,0.0,0.0,-999,0.00,,,0.00,,2013-07-03 12:17:00,
2013-07-03 08:26:00,80.0,-99.9,30.07,South,170,0.0,0.0,-999,0.00,,,0.00,,2013-07-03 12:26:00,
2013-07-03 08:47:00,81.0,-99.9,30.08,South,170,0.0,0.0,-999,0.00,,,-99.99,,2013-07-03 12:47:00,
2013-07-03 08:59:00,81.0,-99.9,30.08,SSE,162,5.0,5.0,-999,0.00,,,0.00,,2013-07-03 12:59:00,
2013-07-03 09:17:00,81.0,-99.9,30.08,SSE,150,3.0,5.0,-999,0.00,,,0.00,,2013-07-03 13:17:00,
2013-07-03 09:37:00,81.0,-99.9,30.07,South,176,1.0,0.0,-999,0.00,,,0.00,,2013-07-03 13:37:00,
2013-07-03 09:49:00,81.0,-99.9,30.07,SSE,150,2.0,4.0,-999,0.00,,,0.00,,2013-07-03 13:49:00,
2013-07-03 09:56:00,81.0,-99.9,30.07,SSE,159,0.0,0.0,-999,0.00,,,0.00,,2013-07-03 13:56:00,
2013-07-03 10:07:00,81.0,-99.9,30.07,SSE,159,0.0,0.0,-999,0.00,,,0.00,,2013-07-03 14:07:00,
2013-07-03 10:15:00,81.0,-99.9,30.08,SSE,160,6.0,7.0,-999,0.00,,,0.00,,2013-07-03 14:15:00,
2013-07-03 10:48:00,84.0,-99.9,30.08,SSE,158,4.0,7.0,-999,0.00,,,0.00,,2013-07-03 14:48:00,
2013-07-03 11:27:00,84.0,-99.9,0.30,SSE,149,7.0,7.0,-999,0.00,,,0.00,,2013-07-03 15:27:00,
2013-07-03 11:38:00,85.0,-99.9,30.07,SW,228,4.0,7.0,-999,0.00,,,0.00,,2013-07-03 15:38:00,
2013-07-03 11:49:00,85.0,-99.9,30.07,SE,146,5.0,5.0,-999,0.00,,,0.00,,2013-07-03 15:49:00,
2013-07-03 11:58:00,85.0,-99.9,30.07,SE,146,5.0,5.0,-999,0.00,,,0.00,,2013-07-03 15:58:00,
2013-07-03 12:24:00,85.0,-99.9,30.07,SSE,163,6.0,6.0,-999,0.00,,,0.00,,2013-07-03 16:24:00,
2013-07-03 12:40:00,86.0,-99.9,30.07,SSW,210,5.0,5.0,-999,0.00,,,0.00,,2013-07-03 16:40:00,
2013-07-03 12:47:00,86.0,-99.9,30.07,ENE,65,5.0,5.0,-999,0.00,,,0.00,,2013-07-03 16:47:00,
2013-07-03 13:27:00,86.0,-99.9,30.06,SW,228,5.0,5.0,-999,0.00,,,0.00,,2013-07-03 17:27:00,
2013-07-03 13:43:00,86.0,-99.9,30.06,SSE,162,6.0,6.0,-999,0.00,,,0.00,,2013-07-03 17:43:00,
2013-07-03 13:56:00,85.0,-99.9,30.05,SSE,165,8.0,9.0,-999,0.00,,,0.00,,2013-07-03 17:56:00,
2013-07-03 14:26:00,87.0,-99.9,30.04,SSE,155,5.0,7.0,-999,0.00,,,0.00,,2013-07-03 18:26:00,
2013-07-03 14:39:00,86.0,-99.9,30.03,SSE,167,5.0,6.0,-999,0.00,,,0.00,,2013-07-03 18:39:00,
2013-07-03 14:47:00,87.0,-99.9,30.03,SW,233,4.0,7.0,-999,0.00,,,0.00,,2013-07-03 18:47:00,
2013-07-03 14:59:00,87.0,-99.9,30.03,SW,233,4.0,7.0,-999,0.00,,,0.00,,2013-07-03 18:59:00,
2013-07-03 15:30:00,86.0,-99.9,30.03,SSW,205,6.0,6.0,-999,0.00,,,0.00,,2013-07-03 19:30:00,
2013-07-03 15:38:00,87.0,-99.9,30.02,SSE,153,6.0,6.0,-999,0.00,,,0.00,,2013-07-03 19:38:00,
2013-07-03 15:49:00,87.0,-99.9,30.02,SW,228,5.0,8.0,-999,0.00,,,0.00,,2013-07-03 19:49:00,
2013-07-03 16:26:00,85.0,-99.9,30.00,South,172,6.0,10.0,-999,0.00,,,0.00,,2013-07-03 20:26:00,
2013-07-03 16:38:00,86.0,-99.9,30.00,SE,138,4.0,5.0,-999,0.00,,,0.00,,2013-07-03 20:38:00,
2013-07-03 16:47:00,86.0,-99.9,30.00,SE,138,4.0,5.0,-999,0.00,,,0.00,,2013-07-03 20:47:00,
2013-07-03 16:58:00,86.0,-99.9,30.00,SE,138,4.0,5.0,-999,0.00,,,0.00,,2013-07-03 20:58:00,
2013-07-03 17:07:00,86.0,-99.9,30.00,SE,138,4.0,5.0,-999,0.00,,,0.00,,2013-07-03 21:07:00,
2013-07-03 17:27:00,86.0,-99.9,30.01,ESE,120,0.0,3.0,-999,0.00,,,0.00,,2013-07-03 21:27:00,
2013-07-03 17:37:00,85.0,-99.9,30.01,SE,145,5.0,5.0,-999,0.00,,,0.00,,2013-07-03 21:37:00,
2013-07-03 17:45:00,84.0,-99.9,30.02,SSE,153,5.0,5.0,-999,0.00,,,0.00,,2013-07-03 21:45:00,
2013-07-03 17:56:00,84.0,-99.9,30.02,SSE,153,5.0,5.0,-999,0.00,,,0.00,,2013-07-03 21:56:00,
2013-07-03 18:27:00,84.0,-99.9,30.02,SSW,201,5.0,9.0,-999,0.00,,,0.00,,2013-07-03 22:27:00,
2013-07-03 18:38:00,83.0,-99.9,30.02,SSE,160,5.0,7.0,-999,0.00,,,0.00,,2013-07-03 22:38:00,
2013-07-03 18:47:00,84.0,-99.9,30.03,South,174,2.0,0.0,-999,0.00,,,0.00,,2013-07-03 22:47:00,
2013-07-03 18:57:00,84.0,-99.9,30.03,South,174,2.0,0.0,-999,0.00,,,0.00,,2013-07-03 22:57:00,
2013-07-03 19:08:00,83.0,-99.9,30.04,SE,142,2.0,0.0,-999,0.00,,,0.00,,2013-07-03 23:08:00,
2013-07-03 19:14:00,83.0,-99.9,30.04,SE,142,2.0,0.0,-999,0.00,,,0.00,,2013-07-03 23:14:00,
2013-07-03 19:26:00,83.0,-99.9,30.04,SSW,198,4.0,4.0,-999,0.00,,,0.00,,2013-07-03 23:26:00,
2013-07-03 19:40:00,83.0,-99.9,30.04,SW,219,2.0,4.0,-999,0.00,,,0.00,,2013-07-03 23:40:00,
2013-07-03 19:46:00,83.0,-99.9,30.04,SSW,198,4.0,9.0,-999,0.00,,,0.00,,2013-07-03 23:46:00,
2013-07-03 19:57:00,83.0,-99.9,30.04,SSW,198,4.0,9.0,-999,0.00,,,0.00,,2013-07-03 23:57:00,
2013-07-03 20:07:00,83.0,-99.9,30.04,South,179,4.0,4.0,-999,0.00,,,0.00,,2013-07-04 00:07:00,
2013-07-03 20:17:00,82.0,-99.9,30.05,SSW,204,0.0,0.0,-999,0.00,,,0.00,,2013-07-04 00:17:00,
2013-07-03 20:27:00,82.0,-99.9,30.05,SSW,204,0.0,0.0,-999,0.00,,,0.00,,2013-07-04 00:27:00,
2013-07-03 20:38:00,82.0,-99.9,30.06,South,169,0.0,0.0,-999,0.00,,,0.00,,2013-07-04 00:38:00,
2013-07-03 20:58:00,82.0,-99.9,30.06,SE,132,0.0,0.0,-999,0.00,,,0.00,,2013-07-04 00:58:00,
2013-07-03 21:16:00,82.0,-99.9,30.06,SE,146,2.0,0.0,-999,0.00,,,0.00,,2013-07-04 01:16:00,
2013-07-03 21:25:00,82.0,-99.9,30.06,SE,146,2.0,0.0,-999,0.00,,,0.00,,2013-07-04 01:25:00,
2013-07-03 21:40:00,82.0,-99.9,30.06,WSW,250,5.0,6.0,-999,0.00,,,0.00,,2013-07-04 01:40:00,
2013-07-03 21:48:00,78.0,-99.9,30.07,West,273,0.0,0.0,-999,0.00,,,0.00,,2013-07-04 01:48:00,
2013-07-03 21:57:00,78.0,-99.9,30.07,West,273,0.0,0.0,-999,0.00,,,0.00,,2013-07-04 01:57:00,
2013-07-03 22:08:00,78.0,-99.9,30.08,West,273,0.0,0.0,-999,0.00,,,0.00,,2013-07-04 02:08:00,
2013-07-03 22:24:00,79.0,-99.9,30.09,West,273,0.0,0.0,-999,0.00,,,0.00,,2013-07-04 02:24:00,
2013-07-03 22:42:00,79.0,-99.9,30.10,West,273,0.0,0.0,-999,0.00,,,0.00,,2013-07-04 02:42:00,
2013-07-03 22:49:00,80.0,-99.9,30.11,West,273,0.0,0.0,-999,0.00,,,0.00,,2013-07-04 02:49:00,
2013-07-03 22:58:00,80.0,-99.9,30.11,West,273,0.0,0.0,-999,0.00,,,0.00,,2013-07-04 02:58:00,
2013-07-03 23:05:00,80.0,-99.9,30.11,West,273,0.0,0.0,-999,0.00,,,0.00,,2013-07-04 03:05:00,
2013-07-03 23:15:00,77.0,-99.9,30.12,WSW,256,1.0,3.0,-999,0.00,,,0.00,,2013-07-04 03:15:00,
2013-07-03 23:46:00,75.0,-99.9,30.12,South,186,0.0,0.0,-999,0.00,,,0.00,,2013-07-04 03:46:00,